Terra Nova, Canada

9:52 AM NDT on July 23, 2017 (GMT -0230)
Terra Nova

Weather History for CXTP - November, 2012

Change the Weather History Date:

Tuesday, November 6, 2012

  Actual Average Record
Temperature  
Mean Temperature 44 °F -  
Max Temperature 57 °F - - ()
Min Temperature 31 °F - - ()
Degree Days  
Heating Degree Days 21    
Moisture  
Dew Point 39 °F    
Average Humidity 85    
Maximum Humidity 99    
Minimum Humidity 60    
Precipitation  
Precipitation 0.31 in - - ()
Sea Level Pressure  
Sea Level Pressure 29.82 in    
Wind  
Wind Speed 8 mph ()    
Max Wind Speed 22 mph    
Max Gust Speed 39 mph    
T = Trace of Precipitation, MM = Missing Value Source: Averaged Metar Reports

Daily Weather History Graph

Daily Weather History Graph

Search for Another Location

Airport or City:

Trip Planner

Search our weather history database for the weather conditions in past years. The results will help you decide how hot, cold, wet, or windy it might be!

Date:

Astronomy

Nov. 06, 2012 Rise Set
Actual Time 7:00 AM NST 4:37 PM NST
Civil Twilight 6:27 AM NST 5:11 PM NST
Nautical Twilight 5:49 AM NST 5:48 PM NST
Astronomical Twilight 5:13 AM NST 6:25 PM NST
Moon 11:16 PM NST (11/6) 12:45 PM NST (11/6)
Length of Visible Light 10h 44m
Length of Day
9h 37m
Waning Gibbous, 54% of the Moon is Illuminated
Nov 6
Waning Gibbous
Nov 6
Last Quarter
Nov 13
New
Nov 20
First Quarter
Nov 28
Full

Hourly Weather History & Observations

Time (NST) Temp. Windchill Dew Point Humidity Pressure Visibility Wind Dir Wind Speed Gust Speed Precip Events Conditions
12:30 AM 41.2 °F 37.3 °F 40.6 °F 98% 29.99 in - SW 5.8 mph - N/A   Unknown
1:30 AM 41.5 °F - 41.0 °F 98% 29.99 in - South 2.3 mph - N/A   Unknown
2:30 AM 41 °F - 41 °F 98% 29.99 in - SSE 1.2 mph - -  
2:30 AM 41.2 °F - 40.6 °F 98% 29.99 in - SSE 1.2 mph - N/A   Unknown
3:30 AM 41.5 °F 38.6 °F 41.0 °F 98% 29.98 in - South 4.6 mph - N/A   Unknown
4:30 AM 41.7 °F 38.8 °F 41.2 °F 98% 29.96 in - SSE 4.6 mph - N/A   Unknown
5:30 AM 42.3 °F 40.5 °F 41.9 °F 99% 29.91 in - ESE 3.5 mph - N/A   Unknown
6:30 AM 42.6 °F - 42.3 °F 99% 29.87 in - ENE 2.3 mph - 0.04 in   Unknown
7:30 AM 43.2 °F 39.7 °F 42.8 °F 99% 29.81 in - East 5.8 mph - 0.08 in   Unknown
8:30 AM 44 °F - 43 °F 97% 29.68 in - East 9.2 mph - -  
8:30 AM 43.7 °F 38.6 °F 43.3 °F 99% 29.68 in - East 9.2 mph - 0.21 in   Unknown
9:30 AM 46.6 °F - 46.2 °F 99% 29.57 in - ESE 10.4 mph 20.7 mph 0.16 in   Unknown
10:30 AM 51.1 °F - 50.7 °F 99% 29.48 in - SSE 10.4 mph 19.6 mph 0.03 in   Unknown
11:30 AM 55.8 °F - 52.9 °F 90% 29.44 in - South 21.9 mph 39.1 mph N/A   Unknown
12:30 PM 57.0 °F - 48.7 °F 74% 29.49 in - SW 20.7 mph 38.0 mph N/A   Unknown
1:30 PM 54.7 °F - 44.1 °F 67% 29.57 in - WSW 21.9 mph 38.0 mph N/A   Unknown
2:30 PM 50 °F - 41 °F 63% 29.64 in - WSW 21.9 mph - -  
2:30 PM 50.4 °F - 41.2 °F 71% 29.64 in - WSW 21.9 mph 34.5 mph N/A   Unknown
3:30 PM 46.6 °F - 39.6 °F 77% 29.73 in - WSW 13.8 mph 24.2 mph N/A   Unknown
4:30 PM 45.5 °F 37.8 °F 36.7 °F 71% 29.78 in - West 19.6 mph 31.1 mph N/A   Unknown
5:30 PM 43.9 °F 37.5 °F 36.1 °F 74% 29.83 in - WSW 12.7 mph 28.8 mph N/A   Unknown
6:30 PM 41.2 °F 32.4 °F 31.6 °F 69% 29.88 in - WSW 18.4 mph 29.9 mph N/A   Unknown
7:30 PM 38.7 °F 30.5 °F 31.1 °F 74% 29.94 in - WSW 13.8 mph 21.9 mph N/A   Unknown
8:30 PM 36 °F - 27 °F 60% 29.99 in - West 13.8 mph - -  
8:30 PM 36.0 °F 27.1 °F 27.1 °F 70% 29.99 in - West 13.8 mph 21.9 mph N/A   Unknown
9:30 PM 33.8 °F 27.0 °F 25.5 °F 72% 30.05 in - West 8.1 mph - N/A   Unknown
10:30 PM 31.5 °F 24.2 °F 24.8 °F 76% 30.06 in - WSW 8.1 mph - N/A   Unknown
11:30 PM 31.5 °F 24.9 °F 25.9 °F 80% 30.06 in - WSW 6.9 mph - N/A   Unknown